Location: Berg
(47.2344°N, 9.5296°E)
Time: 11:59:23
(UTC+00:00)

Cosmos 1812 Rocket - Pass Details

Date: 24 January 2021
Orbit: 604 x 633 km, 82.5° (Epoch: 06 March)

Event Time Altitude Azimuth Distance (km) Brightness Sun altitude
Rises 18:14:23 0° 347° (NNW) 2,907 7.1 -20.6°
Reaches altitude 10° 18:16:39 10° 343° (NNW) 1,992 6.3 -21.0°
Maximum altitude 18:20:58 58° 265° (W) 719 4.1 -21.7°
Drops below altitude 10° 18:25:14 10° 187° (S) 1,959 6.2 -22.4°
Sets 18:27:27 0° 183° (S) 2,855 7.1 -22.8°
